Location: Cremona
(45.1170°N, 10.0330°E)
Time: 09:40:44
(UTC+01:00)

ISS - Visible Passes

Search period start: 22 January 2019 00:00
Search period end: 01 February 2019 00:00
Orbit: 404 x 410 km, 51.6° (Epoch: 23 January)

Date Brightness Start Highest point End Pass type
(mag) Time Alt. Az. Time Alt. Az. Time Alt. Az.
22 Jan -1.9 19:28:25 10° SW 19:30:01 25° SSW 19:30:01 25° SSW visible
23 Jan -2.8 18:37:27 10° SSW 18:40:24 31° SE 18:41:04 28° ESE visible
23 Jan -0.3 20:13:39 10° W 20:13:48 11° W 20:13:48 11° W visible
24 Jan -1.9 17:46:54 10° S 17:49:13 18° SE 17:51:34 10° E visible
24 Jan -3.0 19:22:09 10° WSW 19:24:46 51° W 19:24:46 51° W visible
25 Jan -3.8 18:30:48 10° SW 18:34:05 70° SSE 18:35:40 28° ENE visible
25 Jan -0.5 20:07:49 10° W 20:08:23 14° WNW 20:08:23 14° WNW visible
26 Jan -2.9 19:16:10 10° W 19:19:13 40° NNW 19:19:13 40° NNW visible
27 Jan -3.5 18:24:35 10° WSW 18:27:50 59° NNW 18:29:59 20° NE visible
27 Jan -0.7 20:01:58 10° WNW 20:02:42 14° WNW 20:02:42 14° WNW visible
28 Jan -2.4 19:10:18 10° WNW 19:13:14 29° NNW 19:13:25 29° N visible
29 Jan -2.7 18:18:35 10° W 18:21:41 36° NNW 18:24:07 14° NE visible
29 Jan -0.9 19:55:59 10° NW 19:56:49 15° NW 19:56:49 15° NW visible
30 Jan -2.3 19:04:22 10° WNW 19:07:11 25° N 19:07:29 25° N visible
31 Jan -2.4 18:12:39 10° WNW 18:15:33 27° N 18:18:09 12° NE visible
31 Jan -1.2 19:49:44 10° NW 19:50:52 18° NW 19:50:52 18° NW visible
